User: anonymous   Login
Location: Newark
(45.2500°N, 7.5833°E)
Time: 13:36:41
(UTC+00:00)
Language:

JY1SAT - Orbit

View from above orbital plane
View from above orbital plane
View from above satellite
View from above satellite

Ground track
Ground track

The orbit data is extracted from the following two-line orbital elements,

1 43803U 18099AX  20049.01440486  .00000678  00000-0  66499-4 0  9996
2 43803  97.7165 122.6092 0014104 229.1772 130.8227 14.95420637 65934
Epoch (UTC): 18 February 2020 00:20:44
Eccentricity: 0.0014104
inclination: 97.7165°
perigee height: 571 km
apogee height: 591 km
right ascension of ascending node: 122.6092°
argument of perigee: 229.1772°
revolutions per day: 14.95420637
mean anomaly at epoch: 130.8227°
orbit number at epoch: 6593

The dashed part of the orbit path shows where the satellite is in the earth's shadow,  

DLR